| time (UTC) | temp F | wind direction | speed MPH | gust MPH | rain 1hr in | rain 24hr in | rain mn in | humidity % | barometer mb |
| 20260507120652 | 69 | 0 | 55.0 | 0.0 | 0.00 | 0.00 | 0.00 | 1005.6 | |
| 20260507114836 | 67 | 180 | 111.0 | 0.0 | 0.00 | 0.00 | 0.00 | 1005.6 | |
| 20260507113019 | 66 | 270 | 61.0 | 0.0 | 0.00 | 0.00 | 0.00 | 1005.7 | |
| 20260507111203 | 64 | 0 | 97.0 | 0.0 | 0.00 | 0.00 | 0.00 | 1005.6 | |
| 20260507105346 | 65 | 270 | 41.0 | 0.0 | 0.00 | 0.00 | 0.00 | 1005.6 | |
| 20260507103530 | 66 | 315 | 20.0 | 0.0 | 0.00 | 0.00 | 0.00 | 1005.3 | |
| 20260507101713 | 68 | 270 | 94.0 | 0.0 | 0.00 | 0.00 | 0.00 | 1005.4 | |
| 20260507095858 | 63 | 270 | 32.0 | 0.0 | 0.00 | 0.00 | 0.00 | 1001.5 | |
| 20260507094042 | 63 | 222 | 12.0 | 0.0 | 0.00 | 0.00 | 0.00 | 1067.6 | |
| 20260507092227 | 62 | 222 | 27.0 | 0.0 | 0.00 | 0.00 | 0.00 | 1071.6 | |
| 20260507090412 | 61 | 135 | 56.0 | 0.0 | 0.00 | 0.00 | 0.00 | 1001.5 | |
| 20260507084556 | 61 | 222 | 64.0 | 0.0 | 0.00 | 0.00 | 0.00 | 1001.3 | |
| 20260507082739 | 60 | 222 | 94.0 | 0.0 | 0.00 | 0.00 | 0.00 | 1004.9 | |
| 20260507080923 | 61 | 0 | 57.0 | 0.0 | 0.00 | 0.00 | 0.00 | 1004.7 | |
| 20260507075106 | 60 | 0 | 12.0 | 0.0 | 0.00 | 0.00 | 0.00 | 1004.5 | |
| 20260507073254 | 61 | 270 | 44.0 | 0.0 | 0.00 | 0.00 | 0.00 | 1000.6 | |
| 20260507071449 | 60 | 222 | 80.0 | 0.0 | 0.00 | 0.00 | 0.00 | 1000.3 | |
| 20260507065644 | 58 | 180 | 64.0 | 0.0 | 0.00 | 0.00 | 0.00 | 1000.1 | |
| 20260507063839 | 58 | 0 | 70.0 | 0.0 | 0.00 | 0.00 | 0.00 | 999.9 | |
| 20260507062036 | 57 | 0 | 54.0 | 0.0 | 0.00 | 0.00 | 0.00 | 999.8 | |
| 20260507060231 | 56 | 315 | 40.0 | 0.0 | 0.00 | 0.00 | 0.00 | 999.6 | |
| 20260507054427 | 56 | 270 | 70.0 | 0.0 | 0.00 | 0.00 | 0.00 | 999.3 | |
| 20260507052624 | 56 | 0 | 32.0 | 0.0 | 0.00 | 0.00 | 0.00 | 999.0 | |
| 20260507050811 | 56 | 222 | 39.0 | 0.0 | 0.00 | 0.00 | 0.00 | 1082.8 | |
| 20260507045007 | 55 | 270 | 56.0 | 0.0 | 0.00 | 0.00 | 0.00 | 998.7 | |
| 20260507043156 | 55 | 0 | 19.0 | 0.0 | 0.00 | 0.00 | 0.00 | 998.4 | |
| 20260507041353 | 55 | 0 | 39.0 | 0.0 | 0.00 | 0.00 | 0.00 | 998.3 | |
| 20260507035549 | 54 | 315 | 26.0 | 0.0 | 0.00 | 0.00 | 0.00 | 998.2 | |
| 20260507033746 | 55 | 270 | 13.0 | 0.0 | 0.00 | 0.00 | 0.00 | 998.1 | |
| 20260507031934 | 55 | 0 | 18.0 | 0.0 | 0.00 | 0.00 | 0.00 | 1082.4 | |
| 20260507030119 | 55 | 270 | 31.0 | 0.0 | 0.00 | 0.00 | 0.00 | 1002.4 | |
| 20260507024302 | 55 | 222 | 75.0 | 0.0 | 0.00 | 0.00 | 0.00 | 1002.3 | |
| 20260507022446 | 54 | 0 | 0.0 | 0.0 | 0.00 | 0.00 | 0.00 | 1002.4 | |
| 20260507020629 | 53 | 180 | 0.0 | 0.0 | 0.00 | 0.00 | 0.00 | 1002.2 | |
| 20260507014813 | 52 | 222 | 6.0 | 0.0 | 0.00 | 0.00 | 0.00 | 1002.3 | |
| 20260507011140 | 52 | 180 | 0.0 | 0.0 | 0.00 | 0.00 | 0.00 | 1001.9 | |
| 20260507005324 | 53 | 222 | 7.0 | 0.0 | 0.00 | 0.00 | 0.00 | 1001.7 | |
| 20260507003508 | 55 | 0 | 25.0 | 0.0 | 0.00 | 0.00 | 0.00 | 1001.4 | |
| 20260507001651 | 56 | 270 | 20.0 | 0.0 | 0.00 | 0.00 | 0.00 | 1001.5 | |
| 20260506235835 | 56 | 270 | 33.0 | 0.0 | 0.00 | 0.00 | 0.00 | 1001.8 | |
| 20260506234018 | 57 | 0 | 0.0 | 0.0 | 0.00 | 0.00 | 0.00 | 1001.4 | |
| 20260506232201 | 57 | 222 | 13.0 | 0.0 | 0.00 | 0.00 | 0.00 | 1001.1 | |
| 20260506230345 | 57 | 222 | 12.0 | 0.0 | 0.00 | 0.00 | 0.00 | 1000.8 | |
| 20260506224528 | 57 | 0 | 0.0 | 0.0 | 0.00 | 0.00 | 0.00 | 1000.9 | |
| 20260506222712 | 57 | 222 | 13.0 | 0.0 | 0.00 | 0.00 | 0.00 | 1000.9 | |
| 20260506220855 | 57 | 270 | 22.0 | 0.0 | 0.00 | 0.00 | 0.00 | 1001.2 | |
| 20260506215040 | 57 | 270 | 0.0 | 0.0 | 0.00 | 0.00 | 0.00 | 1001.0 | |
| 20260506213223 | 57 | 0 | 25.0 | 0.0 | 0.00 | 0.00 | 0.00 | 1000.8 | |
| 20260506211407 | 57 | 0 | 19.0 | 0.0 | 0.00 | 0.00 | 0.00 | 1000.6 | |
| 20260506205550 | 57 | 315 | 49.0 | 0.0 | 0.00 | 0.00 | 0.00 | 1000.6 | |
| 20260506203734 | 58 | 270 | 41.0 | 0.0 | 0.00 | 0.00 | 0.00 | 1000.5 | |
| 20260506201917 | 58 | 315 | 0.0 | 0.0 | 0.00 | 0.00 | 0.00 | 1000.4 | |
| 20260506200101 | 59 | 222 | 5.0 | 0.0 | 0.02 | 0.00 | 0.00 | 999.7 | |
| 20260506194244 | 60 | 0 | 7.0 | 0.0 | 0.01 | 0.00 | 0.00 | 999.6 | |
| 20260506192428 | 62 | 0 | 6.0 | 0.0 | 0.00 | 0.00 | 0.00 | 999.7 | |
| 20260506190611 | 63 | 180 | 29.0 | 0.0 | 0.00 | 0.00 | 0.00 | 999.7 | |
| 20260506184754 | 63 | 222 | 21.0 | 0.0 | 0.00 | 0.00 | 0.00 | 999.2 | |
| 20260506182938 | 64 | 0 | 14.0 | 0.0 | 0.00 | 0.00 | 0.00 | 998.4 | |
| 20260506181122 | 64 | 270 | 22.0 | 0.0 | 0.00 | 0.00 | 0.00 | 994.7 | |
| 20260506175306 | 67 | 90 | 14.0 | 0.0 | 0.00 | 0.00 | 0.00 | 994.7 | |
| 20260506173448 | 70 | 135 | 30.0 | 0.0 | 0.00 | 0.00 | 0.00 | 994.6 | |
| 20260506171630 | 72 | 90 | 21.0 | 0.0 | 0.00 | 0.00 | 0.00 | 994.7 | |
| 20260506165813 | 72 | 90 | 18.0 | 0.0 | 0.00 | 0.00 | 0.00 | 997.7 | |
| 20260506163956 | 72 | 135 | 39.0 | 0.0 | 0.00 | 0.00 | 0.00 | 997.7 | |
| 20260506162140 | 77 | 90 | 32.0 | 0.0 | 0.08 | 0.00 | 0.00 | 997.7 | |
| 20260506160320 | 79 | 90 | 36.0 | 0.0 | 0.08 | 0.00 | 0.00 | 994.9 | |
| 20260506154503 | 68 | 45 | 77.0 | 0.0 | 0.08 | 0.00 | 0.00 | 998.1 | |
| 20260506152646 | 69 | 90 | 34.0 | 0.0 | 0.07 | 0.00 | 0.00 | 998.5 | |
| 20260506150830 | 74 | 90 | 35.0 | 0.0 | 0.00 | 0.00 | 0.00 | 998.6 | |
| 20260506145013 | 73 | 90 | 66.0 | 0.0 | 0.00 | 0.00 | 0.00 | 998.8 | |
| 20260506143157 | 74 | 90 | 5.0 | 0.0 | 0.00 | 0.00 | 0.00 | 998.9 | |
| 20260506141340 | 71 | 0 | 17.0 | 0.0 | 0.00 | 0.00 | 0.00 | 999.1 | |
| 20260506135523 | 70 | 0 | 13.0 | 0.0 | 0.00 | 0.00 | 0.00 | 999.3 | |
| 20260506133707 | 74 | 180 | 21.0 | 0.0 | 0.00 | 0.00 | 0.00 | 999.4 | |
| 20260506131850 | 74 | 270 | 27.0 | 0.0 | 0.00 | 0.00 | 0.00 | 999.3 | |
| 20260506130033 | 75 | 270 | 48.0 | 0.0 | 0.00 | 0.00 | 0.00 | 999.3 | |
| 20260506124217 | 81 | 0 | 39.0 | 0.0 | 0.00 | 0.00 | 0.00 | 999.5 | |
| 20260506122400 | 79 | 0 | 41.0 | 0.0 | 0.00 | 0.00 | 0.00 | 999.6 |